AO-07 1 07530U 74089B 17151.87586213 -.00000031 00000-0 84885-4 0 9990 2 07530 101.6289 120.8825 0012120 356.2962 057.7226 12.53627058946589 UO-11 1 14781U 84021B 17151.90570172 .00000123 00000-0 21391-4 0 9998 2 14781 097.6986 198.2197 0007079 249.4153 110.6302 14.82896846766936 LO-19 1 20442U 90005G 17151.87360311 .00000005 00000-0 17893-4 0 9997 2 20442 098.5750 088.5540 0011429 190.4949 169.5998 14.32860503429229 HUBBLE 1 20580U 90037B 17151.93384536 .00000528 00000-0 21593-4 0 9999 2 20580 028.4692 114.9167 0002703 003.8710 031.2331 15.08772918287747 MET-2/21 1 22782U 93055A 17151.82684642 -.00000005 00000-0 -18026-4 0 9996 2 22782 082.5504 036.5724 0023533 115.3611 315.1931 13.83801578199161 AO-27 1 22825U 93061C 17151.88969441 .00000006 00000-0 19958-4 0 9994 2 22825 098.8107 117.2717 0008913 026.2599 333.9032 14.29996994234806 IO-26 1 22826U 93061D 17151.85453462 .00000022 00000-0 26091-4 0 9997 2 22826 098.8050 117.3202 0009261 016.8362 343.3125 14.30325766234997 FO-29 1 24278U 96046B 17151.89648522 -.00000022 00000-0 13666-4 0 9998 2 24278 098.5664 037.3197 0350836 019.7922 341.6450 13.53076462026679 NOAA-15 1 25338U 98030A 17151.93418015 .00000059 00000-0 43701-4 0 9990 2 25338 098.7820 162.8125 0009432 251.8834 108.1319 14.25795457990427 GO-32 1 25397U 98043D 17151.88919274 -.00000003 00000-0 17713-4 0 9990 2 25397 098.6090 094.5704 0002318 066.8288 293.3135 14.23622618981257 ISS 1 25544U 98067A 17151.84546410 .00003504 00000-0 60488-4 0 9999 2 25544 051.6412 119.7758 0005022 216.0442 228.6345 15.53968870059216 NO-44 1 26931U 01043C 17151.95657093 -.00000016 00000-0 25733-4 0 9990 2 26931 067.0497 133.0731 0008024 267.9409 092.0773 14.30461698817955 SO-50 1 27607U 02058C 17151.53135862 .00000009 00000-0 21758-4 0 9991 2 27607 064.5540 176.4592 0030041 105.2867 255.1559 14.75326560776527 CO-55 1 27844U 03031E 17151.89213803 .00000061 00000-0 47424-4 0 9993 2 27844 098.6894 161.1362 0010528 040.5550 319.6410 14.22038853722007 CO-57 1 27848U 03031J 17151.95787503 .00000048 00000-0 41904-4 0 9999 2 27848 098.6987 161.4528 0010570 049.0379 311.1711 14.21653286721867 RS-22 1 27939U 03042A 17151.94726845 .00000126 00000-0 31090-4 0 9995 2 27939 097.9370 297.2135 0011569 278.5990 192.7395 14.66565633730795 NOAA-18 1 28654U 05018A 17151.90218069 .00000006 00000-0 28615-4 0 9991 2 28654 099.1831 173.7181 0015394 115.9269 244.3490 14.12338335619860 CO-58 1 28895U 05043F 17151.42154644 .00000171 00000-0 41785-4 0 9997 2 28895 097.8631 314.4884 0016558 191.8627 168.2188 14.63394293617809 Falconsat-3 1 30776U 07006E 17151.48335345 .00002297 00000-0 73807-4 0 9995 2 30776 035.4354 172.5822 0003077 189.3602 170.7066 15.32182284565696 CO-65 1 32785U 08021C 17151.63168798 .00000284 00000-0 36691-4 0 9992 2 32785 097.5674 176.6601 0012124 217.7780 142.2588 14.87879798492366 AAUSAT2 1 32788U 08021F 17151.89012775 .00000446 00000-0 47104-4 0 9997 2 32788 097.5599 188.4888 0012037 177.3059 182.8229 14.93852352493149 DO-64 1 32789U 08021G 17151.93339927 .00000882 00000-0 66640-4 0 9994 2 32789 097.5591 210.5075 0013821 150.7622 209.4381 15.04822817494322 CO-66 1 32791U 08021J 17151.72604222 .00000357 00000-0 42278-4 0 9995 2 32791 097.5644 181.0637 0012846 201.4540 158.6142 14.90209427492619 RS-30 1 32953U 08025A 17151.78391171 .00000025 00000-0 11284-3 0 9995 2 32953 082.5043 249.8493 0017828 323.3589 036.6270 12.43076854409382 PRISM 1 33493U 09002B 17151.90665102 .00001605 00000-0 14970-3 0 9993 2 33493 098.1715 033.6533 0016142 130.8022 229.4596 14.95659435453345 NOAA-19 1 33591U 09005A 17151.90226716 .00000107 00000-0 83315-4 0 9995 2 33591 099.0911 118.4970 0013337 321.9905 038.0324 14.12183580428094 TISAT-1 1 36799U 10035E 17151.89665974 .00000558 00000-0 63388-4 0 9992 2 36799 098.0595 274.2955 0012903 026.9749 333.2136 14.90378442373150 JUGNU 1 37839U 11058B 17151.48864692 .00000299 00000-0 17635-4 0 9993 2 37839 019.9599 191.7316 0019075 359.9930 141.8512 14.12583894291225 SRMSAT 1 37841U 11058D 17151.52258653 .00000310 00000-0 25369-4 0 9992 2 37841 019.9713 232.8665 0011678 258.5116 217.5913 14.10575412290928 AO-71 1 37854U 11061E 17151.88727326 .00001525 00000-0 89040-4 0 9992 2 37854 101.7058 017.2264 0167924 123.1700 238.5745 15.04028279304038 HRBE 1 37855U 11061F 17151.88595877 .00001735 00000-0 98353-4 0 9997 2 37855 101.7191 015.0389 0181021 129.6018 232.1334 15.02987871303873 ALMASAT-1 1 38078U 12006B 17151.91619393 .00020640 37701-5 23123-3 0 9990 2 38078 069.4393 176.0976 0314111 314.4799 043.1046 15.21544098282319 HORYU-2 1 38340U 12025D 17151.94570857 .00000273 00000-0 48429-4 0 9991 2 38340 098.3761 155.2953 0011382 350.7675 009.3322 14.75330726260489 RS-40 1 38735U 12041C 17151.94564185 .00000010 00000-0 36264-5 0 9998 2 38735 082.4739 334.3148 0017542 065.3216 294.9688 12.42574444219655 BEESAT-3 1 39134U 13015E 17151.81033389 .00001507 00000-0 83134-4 0 9996 2 39134 064.8679 279.3199 0034965 272.5793 087.1331 15.17754673226610 BEESAT-2 1 39136U 13015G 17151.87201749 .00001140 00000-0 70419-4 0 9996 2 39136 064.8700 289.5822 0031865 285.2963 074.4641 15.15046757226415 ZACUBE-1 1 39417U 13066B 17151.87414621 .00000245 00000-0 37680-4 0 9997 2 39417 097.6308 194.9066 0058352 324.6136 035.1210 14.80699530190368 TRITON-1 1 39427U 13066M 17151.96201616 .00000264 00000-0 50142-4 0 9995 2 39427 097.6379 168.4054 0115436 041.3947 319.5934 14.67449407188472 GOMX-1 1 39430U 13066Q 17151.91705532 .00000276 00000-0 58574-4 0 9990 2 39430 097.6645 152.1944 0153552 094.3920 267.4842 14.58859123187377 LO-74 1 39440U 13066AA 17151.62954885 .00000274 00000-0 45495-4 0 9992 2 39440 097.6299 183.9808 0080591 355.2841 004.7601 14.75441418188455 AO-73 1 39444U 13066AE 17151.65923002 .00000328 00000-0 47446-4 0 9994 2 39444 097.6324 195.7344 0057452 322.1160 037.6016 14.81430054188570 SPROUT 1 39770U 14029E 17151.87084785 .00001179 00000-0 14036-3 0 9999 2 39770 097.8715 251.4013 0009861 029.7293 330.4477 14.86208624163714 DUCHIFAT-1 1 40021U 14033M 17151.30686541 .00000657 00000-0 74184-4 0 9992 2 40021 097.9196 064.4470 0013311 003.7984 356.3332 14.89870411160088 NANOSATCBR1 1 40024U 14033Q 17151.90603579 .00000505 00000-0 59390-4 0 9995 2 40024 097.9156 063.9603 0012537 003.1614 356.9680 14.89199057159600 EO-79 1 40025U 14033R 17151.80963508 .00000375 00000-0 46518-4 0 9999 2 40025 097.9139 062.9299 0012798 006.2434 353.8940 14.88406158159545 DTUSAT-2 1 40030U 14033W 17151.74346758 .00000365 00000-0 45851-4 0 9998 2 40030 097.9104 061.9941 0012105 001.3130 358.8116 14.88029937160006 EO-80 1 40032U 14033Y 17151.78496567 .00000360 00000-0 45374-4 0 9993 2 40032 097.9112 062.0421 0012054 001.5042 358.6208 14.87964366159482 ANTELSAT 1 40034U 14033AA 17151.71665154 .00000274 00000-0 48589-4 0 9993 2 40034 097.8616 036.1570 0058905 347.4076 012.5658 14.73687418157964 VELOX-1 1 40057U 14034E 17151.83713196 .00000467 00000-0 73613-4 0 9992 2 40057 098.1886 251.8087 0012535 109.0591 251.1977 14.77109198157349 DAURIA DX 1 1 40071U 14037C 17151.84895110 .00000207 00000-0 34079-4 0 9994 2 40071 098.3360 262.2676 0009716 103.0659 257.1640 14.81011271156554 UKUBE-1 1 40074U 14037F 17151.83530820 .00000516 00000-0 69904-4 0 9998 2 40074 098.3448 266.0187 0005827 099.5169 260.6705 14.83487196156755 HODOYOSHI-1 1 40299U 14070B 17151.89233006 .00001418 00000-0 64610-4 0 9997 2 40299 097.4035 234.8799 0014071 143.5395 327.2536 15.22229678142468 CHUBUSAT-1 1 40300U 14070C 17151.84721162 .00001528 00000-0 72007-4 0 9991 2 40300 097.3959 232.0403 0021022 154.6130 343.7190 15.20825969142306 QSAT-EOS 1 40301U 14070D 17151.90540119 .00003623 00000-0 15485-3 0 9994 2 40301 097.3894 232.1071 0028371 151.6291 297.9653 15.23125862142353 FIREBIRD FU3 1 40377U 15003B 17151.76631491 .00002197 00000-0 96589-4 0 9992 2 40377 099.1229 332.4506 0137350 057.0811 304.3542 15.15300674128519 FIREBIRD FU4 1 40378U 15003C 17151.75877909 .00002303 00000-0 10090-3 0 9999 2 40378 099.1230 332.4778 0137529 057.0105 304.4254 15.15321830128526 GRIFEX 1 40379U 15003D 17151.78317905 .00002014 00000-0 93755-4 0 9997 2 40379 099.1246 330.3562 0143371 064.2275 297.3666 15.12895343128408 NO-84 1 40654U 15025D 17152.40303958 .00011078 00000-0 20981-3 0 04614 2 40654 054.9958 307.1469 0180058 225.0839 133.5221 15.33230565077477 NO-83 1 40655U 15025E 17152.33271907 .00018377 00000-0 28356-3 0 05136 2 40655 054.9826 284.0968 0147990 238.3911 120.2272 15.42679082077778 DEORBITSAIL 1 40719U 15032E 17151.71659201 .00000495 00000-0 79201-4 0 9999 2 40719 097.9823 045.6790 0015905 191.5780 168.5066 14.76039973101893 NUDT-PHONESAT 1 40900U 15049B 17151.90457558 .00002427 00000-0 11802-3 0 9990 2 40900 097.4430 160.0598 0012228 284.5820 075.4058 15.19314904093980 XW-2A 1 40903U 15049E 17151.79817644 .00002135 00000-0 57987-4 0 9997 2 40903 097.4222 177.3002 0013865 330.9217 029.1255 15.38664173095127 XW-2C 1 40906U 15049H 17151.92161797 .00000870 00000-0 50746-4 0 9996 2 40906 097.4546 157.7378 0013550 271.4292 088.5387 15.14504611093778 XW-2D 1 40907U 15049J 17151.90611746 .00000930 00000-0 53855-4 0 9990 2 40907 097.4515 157.4892 0012895 269.4404 090.5351 15.14605799093779 LILACSAT-2 1 40908U 15049K 17151.95300295 .00000507 00000-0 32232-4 0 9996 2 40908 097.4618 157.3267 0014497 266.9498 093.0075 15.13099218093711 XW-2F 1 40910U 15049M 17151.91773253 .00001379 00000-0 76247-4 0 9995 2 40910 097.4536 158.1582 0013702 266.8522 093.1143 15.15470998093815 XW-2B 1 40911U 15049N 17151.91180936 .00000902 00000-0 52379-4 0 9997 2 40911 097.4559 157.8626 0012802 269.7753 090.2012 15.14568615093674 DCBB 1 40912U 15049P 17151.92759850 .00002273 00000-0 11629-3 0 9991 2 40912 097.4501 159.9592 0014084 258.4230 163.7505 15.17568530093825 TW-1C 1 40926U 15051B 17151.85595196 .00011728 00000-0 27205-3 0 9994 2 40926 097.2302 191.5449 0010156 222.5914 255.4486 15.42493967094408 TW-1A 1 40928U 15051D 17151.87021538 .00005632 00000-0 16265-3 0 9993 2 40928 097.2280 187.9795 0010910 256.7889 212.3982 15.36005266094199 IO-86 1 40931U 15052B 17151.62801405 .00000703 00000-0 89181-5 0 9993 2 40931 005.9998 350.7619 0013626 007.2549 352.7789 14.76529146090516 GomX-3 1 40949U 98067HA 16292.18357804 .08527750 12374-4 77882-3 0 9992 2 40949 51.6055 106.7696 0006699 286.1344 73.8944 16.38002265 59645 LQSat 1 40958U 15057A 17151.87662175 .00000062 00000-0 17431-4 0 9999 2 40958 097.9778 227.4796 0019401 116.3782 243.9404 14.72965736088715 AO-85 1 40967U 15058D 17152.30851698 .00000352 00000-0 60044-4 0 05018 2 40967 064.7789 267.0426 0171960 083.8561 278.2104 14.75420913074776 ATHENOXAT-1 1 41168U 15077C 17151.05318001 .00000865 00000-0 10943-4 0 9993 2 41168 014.9871 294.5744 0011966 137.9711 350.1247 15.11528495080448 ChubuSat-2 1 41338U 16012B 17151.58006410 .00000436 00000-0 27564-4 0 9999 2 41338 031.0026 217.7332 0013978 255.4918 104.4166 14.99734057070491 ChubuSat-3 1 41339U 16012C 17151.84328803 .00000538 00000-0 35433-4 0 9999 2 41339 031.0102 215.2296 0014035 264.9042 095.0006 14.99941011070518 Horyu-4 1 41340U 16012D 17151.82400907 .00000620 00000-0 41113-4 0 9999 2 41340 031.0045 212.9556 0014293 272.6409 087.2590 15.00582945070553 OUFTI-1 1 41458U 16025C 17151.93543113 .00002383 00000-0 13148-3 0 9996 2 41458 098.1878 188.5846 0173812 344.4462 015.1460 15.03125616060142 e-st@r-II 1 41459U 16025D 17151.88814580 .00003439 00000-0 18793-3 0 9994 2 41459 098.1879 188.4862 0174345 345.1412 014.4724 15.02980707060128 AAUSAT4 1 41460U 16025E 17151.82853961 .00004514 00000-0 24529-3 0 9995 2 41460 098.1792 188.5142 0167215 343.5856 015.9952 15.03847374060131 MinXSS 1 41474U 98067HU 17125.52237589 .05724416 12300-4 86147-3 0 9995 2 41474 051.6449 208.6967 0008167 329.0747 030.9230 16.33400422055623 CADRE 1 41475U 98067HV 17003.74787607 .12518598 12537-4 55989-3 0 9998 2 41475 51.6110 110.0165 0004040 312.3134 47.7551 16.43344525 36494 NODES 1 1 41477U 98067HX 17151.89845989 .00048208 00000-0 24985-3 0 9991 2 41477 051.6281 087.8177 0004030 068.4376 291.7054 15.80524350059495 NODES 2 1 41478U 98067HY 17151.87173336 .00045606 00000-0 24192-3 0 9999 2 41478 051.6317 088.4094 0003833 067.6267 292.5141 15.80040427059484 LO-87 1 41557U 16033B 17151.89365463 .00001584 00000-0 62428-4 0 9998 2 41557 097.4630 231.4108 0015887 068.3605 291.9324 15.26994061055945 NuSat2 1 41558U 16033C 17151.85973587 .00001564 00000-0 61940-4 0 9993 2 41558 097.4656 231.4278 0015346 067.4380 292.8481 15.26867848055937 Lapan A3 1 41603U 16040E 17151.95805556 .00000408 00000-0 22516-4 0 9995 2 41603 097.4617 214.1347 0014768 126.3354 236.4120 15.19342063052191 Swayam 1 41607U 16040J 17151.87770191 .00001856 00000-0 87312-4 0 9999 2 41607 097.4612 214.3169 0015854 129.7483 230.5152 15.20719455052129 Pratham 1 41783U 16059A 17151.88140450 .00000079 00000-0 24869-4 0 9998 2 41783 098.1681 213.4230 0033009 209.9217 150.0098 14.62835377036219 AlSat 1N 1 41789U 16059G 17151.81508912 .00000158 00000-0 39312-4 0 9995 2 41789 098.1678 213.8243 0027686 203.9817 156.0085 14.64045285036218 ScatSat 1 41790U 16059H 17151.77223725 .00000029 00000-0 18253-4 0 9996 2 41790 098.0663 202.5144 0011047 190.4137 169.6831 14.50108260035886 TY-1 1 41844U 16066D 17151.84843948 .00001726 00000-0 78481-4 0 9991 2 41844 097.4046 159.2504 0014668 299.9561 181.9245 15.22006269030854 CAS-2T 1 41845U 16066E 17151.90173411 .00000126 00000-0 30685-4 0 9997 2 41845 098.7759 167.1417 0365698 296.6963 059.7208 14.37751872029157 Pegasus-1 1 41846U 16066F 17151.94740354 .00000454 00000-0 81143-4 0 9997 2 41846 098.7812 166.9908 0368327 297.7848 058.6453 14.37006881029148 STARS-C 1 41895U 98067KR 17151.88937789 .00019055 00000-0 22912-3 0 9990 2 41895 051.6381 115.7558 0002832 261.3805 098.6868 15.60874579025447 Tancredo 1 1 41931U 98067KT 17151.51690310 .00038318 00000-0 36960-3 0 9998 2 41931 051.6368 115.5026 0003732 190.3097 169.7822 15.66095057020981 ITF-2 1 41932U 98067KU 17151.86198164 .00009713 00000-0 12945-3 0 9991 2 41932 051.6405 117.0832 0004617 198.9161 161.1660 15.58837198020993 AOBA-V3LOX3 1 41935U 98067KX 17151.47077042 .00011370 00000-0 14895-3 0 9990 2 41935 051.6400 118.9673 0003989 200.6627 159.4205 15.59097014021030 OSNSAT 1 41939U 98067KZ 17151.31862086 .00024698 00000-0 27510-3 0 9992 2 41939 051.6375 117.9384 0004694 199.2607 160.8210 15.62677974020290 EO-88 1 42017U 17008BX 17151.87698489 .00001742 00000-0 77313-4 0 9993 2 42017 097.4959 213.3646 0004880 280.3522 079.7164 15.22913930016002 SOMP2 1 42700U 98067LH 17146.24099712 .00009256 00000-0 14175-3 0 9999 2 42700 051.6394 147.6262 0005235 254.8246 174.5572 15.55111160001533 HAVELSAT 1 42701U 98067LJ 17146.31642381 .00009020 00000-0 13835-3 0 9995 2 42701 051.6401 147.2493 0005571 239.9072 251.8913 15.55105705001524 Columbia 1 42702U 98067LK 17146.31563003 .00016324 00000-0 24342-3 0 9999 2 42702 051.6411 147.2500 0005131 240.7681 247.5549 15.55218209001456 PHOENIX 1 42706U 98067LP 17146.30862670 .00009420 00000-0 14424-3 0 9993 2 42706 051.6413 147.2969 0001591 208.7387 236.7375 15.55095288001440 X-CubeSat 1 42707U 98067LQ 17146.31691506 .00009066 00000-0 13920-3 0 9999 2 42707 051.6390 147.2573 0001089 164.9070 326.2930 15.55073688001431 qbee 1 42708U 98067LR 17146.30898514 .00009426 00000-0 14453-3 0 9999 2 42708 051.6402 147.2976 0000831 204.2355 241.8411 15.55055890001397 ZA-AeroSat 1 42713U 98067LU 17146.31006494 .00008579 00000-0 13260-3 0 9997 2 42713 051.6397 147.3145 0004307 234.4992 210.7788 15.54970279001106 LINK 1 42714U 98067LV 17146.31040925 .00009925 00000-0 15285-3 0 9990 2 42714 051.6383 147.3129 0002259 162.7260 282.6338 15.54867338001211 UPSat 1 42716U 98067LX 17146.31796131 .00010815 00000-0 16507-3 0 9997 2 42716 051.6405 147.2701 0003436 245.0525 245.4715 15.55003598001239 SpaceCube 1 42717U 98067LY 17146.31848382 .00008939 00000-0 13805-3 0 9996 2 42717 051.6359 147.2556 0000740 028.2884 103.8507 15.54930526000470 Hoopoe 1 42718U 98067LZ 17146.30953725 .00010024 00000-0 15368-3 0 9998 2 42718 051.6386 147.3131 0003987 247.9870 194.4663 15.54975590000471 UNSW-EC0 1 42721U 98067MA 17151.89101666 .00012643 00000-0 19212-3 0 9992 2 42721 051.6394 119.5131 0007094 246.1078 113.9170 15.54932958001043 NJUST-1 1 42722U 98067MB 17151.89122344 .00007096 00000-0 11146-3 0 9993 2 42722 051.6395 119.5149 0007002 246.6706 113.3549 15.54829268001049 Challenger 1 42723U 98067MC 17151.89123775 .00009595 00000-0 14804-3 0 9993 2 42723 051.6395 119.5146 0006924 245.8143 114.2124 15.54849134001026 DUTHsat 1 42724U 98067MD 17151.89148411 .00011898 00000-0 18193-3 0 9992 2 42724 051.6398 119.5170 0006019 250.0852 109.9491 15.54833187000946 LilacSat-1 1 42725U 98067ME 17151.31312080 .00009644 00000-0 14930-3 0 9996 2 42725 051.6398 122.4036 0006055 246.8453 113.1900 15.54753471000850 nSIGHT1 1 42726U 98067MF 17151.89172544 .00005944 00000-0 94964-4 0 9994 2 42726 051.6397 119.5182 0005994 250.4084 109.6260 15.54706826000953 QBITO 1 42728U 98067MH 17151.05584118 .00011510 00000-0 17638-3 0 9996 2 42728 051.6396 123.6858 0003026 256.8372 103.2281 15.54821603000622 Aalto-2 1 42729U 98067MJ 17151.50574702 .00010076 00000-0 15522-3 0 9991 2 42729 051.6397 121.4405 0003015 259.6412 100.4239 15.54837546000706 SUSat 1 42730U 98067MK 17151.18449434 .00010876 00000-0 16723-3 0 9992 2 42730 051.6398 123.0455 0003050 256.0947 103.9705 15.54792985000641 i-INSPIRE II 1 42731U 98067ML 17151.12027370 .00011037 00000-0 16905-3 0 9990 2 42731 051.6391 123.3654 0007279 188.4246 171.6624 15.54868103000688 PolyITAN-2-SAU 1 42732U 98067MM 17151.31308335 .00011010 00000-0 16858-3 0 9993 2 42732 051.6392 122.4031 0007335 189.1819 170.9039 15.54879610000717 SNUSAT-1 1 42733U 98067MN 17150.73476355 .00013250 00000-0 20182-3 0 9990 2 42733 051.6390 125.2909 0007053 187.8381 172.2501 15.54819745000629 ExAlta-1 1 42734U 98067MP 17151.50598490 .00010227 00000-0 15702-3 0 9995 2 42734 051.6394 121.4416 0008682 217.0637 142.9756 15.54888114000693 Aoxiang-1 1 42735U 98067MQ 17151.18472976 .00009273 00000-0 14327-3 0 9991 2 42735 051.6397 123.0454 0007705 240.0636 119.9590 15.54853512002064 BeEagleSat 1 42736U 98067MR 17151.44192021 .00009245 00000-0 14298-3 0 9997 2 42736 051.6396 121.7636 0007595 239.5976 120.4265 15.54830228000791 Atlantis 1 42737U 98067MS 17151.89173200 .00015995 00000-0 24094-3 0 9999 2 42737 051.6394 119.5188 0007345 240.3815 119.6444 15.54945359000759 /EX
